RH
41 30 45 41 39 31 38 36 30 41 42 46 42 46 46 56 51 53 76 73 71 71 65 64 82 74 74 74 73 75 78 77 75 73 73 73 74 73 72 72 75 74 69 69 68 67 67 68 70
24 42 43 54 42 40 40 38 34 37 50 47 46 49 48 57 66 81 78 77 70 68 66 63 81 77 74 74 73 73 77 75 74 73 69 69 66 69 70 73 78 75 69 68 66 66 69 72 72
28 37 37 55 53 40 36 37 45 49 50 42 48 47 50 55 71 75 68 78 70 68 65 66 82 80 76 74 73 75 77 76 76 76 70 67 66 65 68 78 77 74 68 66 67 69 72 73 74
34 33 37 53 50 47 45 39 41 52 50 46 47 51 56 59 67 63 71 71 68 67 64 77 85 81 76 73 70 75 79 78 77 74 70 66 66 67 69 78 76 74 68 67 68 72 74 75 76
36 37 51 55 47 46 44 36 43 47 45 47 50 59 63 62 61 70 74 69 70 70 64 66 85 80 75 71 70 74 75 78 76 71 69 64 66 66 69 78 78 76 71 70 71 74 76 76 75
33 38 36 49 47 42 40 35 38 41 45 55 56 58 61 67 74 78 68 70 73 73 69 65 76 80 76 72 72 77 78 80 78 73 70 67 67 68 69 78 80 79 76 74 74 75 75 74 73
33 36 46 54 51 48 37 34 36 40 43 47 48 58 73 74 68 75 66 74 75 71 70 70 64 68 77 80 82 81 80 80 78 77 78 76 80 75 77 82 82 80 76 74 74 76 74 70 70
37 36 53 53 46 38 39 31 30 34 40 45 46 51 60 65 72 69 77 82 71 69 68 72 69 69 71 67 84 84 84 84 81 76 76 79 82 76 75 81 82 79 74 73 74 72 69 68 68
37 34 40 42 50 38 38 35 39 40 44 44 44 51 52 65 72 81 88 88 74 72 70 70 72 75 73 66 66 74 75 77 78 69 67 63 50 48 46 73 80 78 76 72 71 68 70 72 66
30 38 35 37 39 35 38 34 36 37 43 45 54 68 65 68 82 85 84 87 75 74 72 70 74 72 69 58 67 69 62 54 51 47 53 45 54 52 49 62 74 74 75 73 73 72 72 55 37
35 31 32 29 34 34 32 37 35 36 44 36 42 79 77 82 84 80 77 74 69 69 66 69 73 73 66 66 60 57 51 50 45 50 48 52 45 47 39 42 40 44 50 38 44 44 38 44 39
30 27 28 25 35 37 34 32 35 36 27 32 36 66 77 82 82 78 78 69 68 68 66 66 63 71 71 60 54 55 50 48 40 44 51 53 45 48 45 39 44 43 39 44 39 39 50 48 48
25 22 33 29 37 35 34 32 32 36 39 49 60 69 73 76 76 73 67 64 65 68 64 58 63 67 68 65 62 61 58 47 43 42 50 46 45 52 45 47 42 41 41 40 41 43 43 49 48
23 29 33 32 35 32 29 35 34 34 48 64 68 69 69 73 72 73 73 69 68 64 64 56 60 64 65 60 66 62 60 55 45 47 47 54 47 54 48 48 45 44 42 43 41 40 42 44 45
34 34 32 32 32 30 28 31 35 44 56 63 67 70 71 71 70 73 69 66 62 61 58 55 58 61 64 61 60 60 54 48 49 48 57 55 52 57 55 49 49 47 48 50 42 43 43 43 44
32 33 33 28 34 33 28 29 26 53 55 56 66 69 75 76 68 68 66 63 58 54 56 51 42 57 63 60 56 52 51 49 48 49 50 55 56 58 56 52 54 51 49 44 41 40 41 45 44
33 30 38 32 33 32 30 29 28 56 56 55 62 66 71 72 71 66 65 63 57 54 50 49 52 54 58 61 57 61 60 51 49 52 48 58 58 58 55 54 57 53 45 46 42 43 43 44 40
35 38 38 34 28 35 33 29 30 48 56 54 59 63 70 73 66 62 61 63 58 56 51 49 53 54 60 59 63 56 54 53 54 52 48 61 57 62 60 57 59 50 44 42 44 46 44 39 34
26 33 32 30 28 30 29 30 27 38 57 56 62 65 70 67 57 57 57 61 61 61 54 52 53 57 54 56 58 56 51 54 53 50 55 60 60 62 65 60 60 56 48 48 50 44 45 41 39
29 31 29 26 26 32 32 30 33 46 52 52 55 64 62 66 66 57 54 56 63 63 59 56 51 56 53 51 57 54 50 53 50 52 56 57 63 65 62 62 60 59 55 56 49 45 39 37 43
30 31 31 26 27 30 31 25 33 41 56 60 60 55 55 59 67 61 52 54 56 60 61 56 52 54 52 54 58 60 65 58 55 56 55 59 62 62 60 62 59 61 55 54 58 52 46 36 40
32 26 26 26 27 28 24 29 25 29 41 50 46 54 57 58 60 61 52 49 53 54 56 55 54 54 55 59 54 58 49 48 46 53 52 58 62 61 62 62 62 61 53 55 51 44 44 40 36
25 23 24 25 29 29 26 27 24 48 31 27 31 48 58 61 64 66 57 47 44 49 53 55 56 55 57 62 56 56 52 48 49 53 62 63 65 64 62 64 64 61 52 55 52 50 45 38 35
27 27 32 33 32 39 30 27 25 22 26 29 36 38 47 61 60 58 58 49 45 53 58 56 58 56 60 61 60 62 60 61 53 56 59 60 62 65 67 63 65 62 57 55 51 52 50 45 44
26 36 45 46 47 44 31 30 25 22 20 29 28 30 44 56 61 62 63 50 48 52 59 58 56 55 58 62 61 62 62 59 58 59 56 61 63 65 69 68 67 61 58 55 52 53 53 51 47
34 32 52 47 46 36 32 32 24 21 24 31 32 29 43 56 58 58 62 54 49 52 57 56 54 52 56 60 61 61 59 51 49 55 52 55 57 61 69 66 64 62 57 56 55 50 48 55 54
37 37 33 46 50 40 29 26 23 22 25 30 30 36 40 48 55 56 59 62 52 52 58 59 54 50 55 57 60 62 60 56 52 58 59 56 60 60 72 71 68 62 58 56 58 50 53 54 57
29 32 44 53 64 44 35 35 24 24 23 28 33 34 38 46 52 53 56 65 55 52 54 61 56 51 54 61 64 64 61 58 57 60 63 63 65 65 70 68 66 62 63 57 56 55 56 56 55
38 40 47 44 48 41 38 32 29 22 22 26 31 36 38 42 45 49 54 62 60 55 56 62 58 53 55 63 66 66 66 63 62 62 63 65 68 67 69 72 71 65 66 61 58 62 67 60 63
23 30 34 51 50 54 42 29 24 28 27 32 31 37 37 39 40 47 53 64 65 60 60 60 60 57 56 60 65 68 70 66 67 66 64 68 70 70 69 68 71 68 64 71 63 66 65 65 66
Wind_Speed
4 4 3 2 2 1 3 2 2 5 5 1 6 4 5 3 1 2 4 3 14 14 12 12 11 12 11 10 11 11 12 13 13 14 14 14 15 14 13 12 11 16 20 21 21 21 21 21 21
3 4 2 2 3 2 3 2 2 2 5 11 8 4 2 2 3 7 8 9 15 13 11 11 11 10 11 10 10 10 12 14 13 15 14 13 14 14 13 12 13 19 21 21 21 21 22 22 21
3 1 0 3 2 2 2 3 8 11 10 3 4 3 1 2 3 11 6 14 14 13 12 11 10 10 10 11 11 9 12 12 12 14 14 14 14 15 16 14 18 20 21 21 21 21 21 21 20
1 1 3 3 3 2 1 5 9 11 2 2 5 5 3 4 8 7 14 16 14 12 11 11 10 10 11 11 11 10 13 11 13 13 13 14 15 16 15 13 17 20 21 21 21 21 20 20 20
3 1 3 3 1 2 3 7 13 8 5 5 4 5 3 3 7 13 15 14 14 12 11 11 10 10 11 12 11 11 12 12 13 12 12 14 15 16 15 12 17 20 20 20 20 19 19 18 18
2 1 2 2 2 2 2 9 11 6 6 6 4 8 5 3 12 13 15 14 12 11 10 11 11 11 11 11 11 10 10 12 12 11 12 15 14 13 14 14 16 18 19 18 18 18 18 18 18
3 2 2 1 2 2 4 11 9 8 7 6 10 7 3 9 10 14 14 12 12 11 10 9 10 12 13 11 11 10 10 10 11 12 12 12 12 14 15 16 18 18 18 18 18 17 17 17 18
3 2 2 2 2 2 4 10 5 9 5 7 8 6 5 12 15 14 10 10 12 11 11 10 10 10 9 9 11 11 11 10 10 12 13 14 15 15 16 17 17 16 16 16 17 16 16 17 17
2 1 2 3 5 2 5 8 3 2 8 5 8 3 4 23 18 13 10 8 10 8 9 10 10 9 9 9 10 12 13 12 12 12 12 11 10 13 15 16 16 16 16 15 15 15 15 15 15
2 2 4 4 4 3 6 7 10 7 5 6 5 7 17 22 18 16 16 12 14 11 9 8 9 9 9 7 9 9 8 7 7 8 9 8 9 10 12 15 17 18 17 15 14 13 12 7 7
4 5 3 5 9 5 4 5 7 6 7 10 15 17 20 21 17 18 17 15 14 13 8 8 8 9 10 8 7 5 5 5 6 8 7 7 6 6 7 6 6 7 10 7 7 7 5 7 6
4 8 6 4 6 7 7 5 6 12 12 3 9 21 21 21 20 19 17 16 15 13 11 9 9 8 7 6 6 6 5 5 5 5 6 5 5 6 6 5 6 6 5 7 5 5 6 7 7
6 4 3 6 5 6 8 9 6 12 2 4 17 20 21 19 19 17 15 14 14 14 12 11 10 9 8 8 6 5 5 5 6 5 5 5 7 6 6 6 6 7 6 6 6 6 5 6 6
3 4 3 3 6 3 6 3 6 2 5 9 14 16 17 19 19 17 16 16 16 14 13 12 12 9 9 8 7 5 5 6 5 4 4 7 7 7 7 6 6 6 6 6 6 6 6 5 5
3 3 2 4 4 3 6 3 8 1 7 9 11 12 14 16 18 19 16 16 16 14 15 14 13 12 10 9 7 5 6 6 5 4 5 9 8 8 9 7 6 6 6 8 7 7 6 6 6
2 1 3 4 4 1 4 10 6 3 8 9 10 11 14 17 18 14 14 14 15 13 15 15 12 12 11 8 7 5 6 6 5 6 6 9 8 9 8 7 6 6 6 6 6 6 6 6 6
2 5 5 4 2 4 4 4 1 4 7 8 10 11 13 14 14 14 15 16 17 16 16 16 14 14 12 10 7 5 6 5 5 6 7 8 8 9 7 7 7 6 5 5 5 6 5 7 7
5 4 3 5 3 3 4 11 6 7 8 8 10 11 13 14 16 15 17 15 16 16 16 16 13 14 13 9 7 5 5 5 5 6 7 10 8 9 7 7 8 6 6 6 6 8 7 6 7
5 4 4 4 2 3 5 10 8 6 8 12 9 11 12 13 11 13 15 16 16 16 16 17 16 15 11 9 9 6 7 6 6 6 10 10 9 9 8 7 7 6 6 7 8 9 10 6 5
7 6 6 5 3 7 2 7 6 5 7 13 11 12 13 12 12 15 16 16 18 18 18 17 17 15 13 9 7 4 6 5 6 6 8 9 10 10 8 8 7 7 8 8 7 7 5 3 1
7 9 7 8 0 5 2 4 5 2 8 9 11 12 13 16 16 16 18 18 16 18 19 18 18 17 15 13 7 4 5 4 5 6 7 8 10 10 9 9 8 7 6 6 6 6 5 4 2
10 11 7 7 3 7 2 5 5 4 9 9 14 13 13 15 16 16 17 17 18 18 17 18 18 18 15 15 13 13 11 10 7 8 7 8 11 11 10 9 8 8 6 7 6 5 4 4 4
9 6 10 8 7 4 4 5 2 2 8 15 13 13 12 16 17 18 20 18 17 16 17 17 18 18 17 17 16 12 14 10 7 8 10 10 10 10 10 10 9 8 6 7 7 6 5 3 3
7 6 4 3 3 7 7 7 5 5 7 5 6 10 11 15 17 17 15 15 15 14 15 17 19 19 18 17 17 16 16 12 11 11 10 9 8 8 9 9 7 7 7 8 7 7 7 6 5
6 6 2 4 5 6 4 6 7 5 8 10 11 8 6 12 15 15 17 17 16 18 18 17 20 21 20 19 18 17 15 17 15 15 12 12 9 8 11 11 9 7 7 8 7 7 7 6 6
10 12 6 10 6 6 2 6 4 4 5 9 10 9 3 10 11 14 17 17 17 18 19 19 21 21 21 20 19 16 18 12 12 14 12 11 11 10 12 11 10 10 11 10 8 6 6 7 6
5 9 4 6 3 3 5 4 8 4 7 6 6 5 7 8 11 13 14 15 16 17 19 20 20 20 20 21 17 18 16 16 15 15 14 12 11 9 12 12 11 10 9 10 10 6 7 7 6
12 12 6 0 8 8 5 4 7 5 8 5 6 8 8 7 8 10 12 13 14 16 17 18 19 21 20 19 17 15 18 17 15 15 16 15 12 13 14 13 13 12 11 10 10 8 8 8 5
7 6 2 5 3 10 9 6 8 11 11 9 7 8 5 4 5 4 6 10 13 15 16 17 18 19 18 17 16 17 16 17 16 15 15 15 15 15 16 15 14 14 10 11 11 9 8 9 7
19 14 9 7 7 1 2 8 4 12 8 8 7 3 3 5 5 6 6 10 12 14 15 17 17 18 18 17 16 16 16 16 16 16 16 16 16 16 16 15 14 11 13 11 11 11 9 9 8
Wind_Direction
131 136 156 134 195 69 81 132 283 133 157 116 133 191 206 43 184 359 119 143 140 138 138 134 127 129 124 118 112 104 103 98 98 96 85 86 90 95 91 90 105 108 98 92 86 83 80 79 76
143 143 125 110 95 106 123 268 176 162 116 120 109 136 175 125 99 117 137 147 145 136 135 135 129 129 125 119 107 101 108 109 103 98 97 98 99 97 88 90 106 104 98 91 88 85 83 81 79
133 48 277 71 95 118 143 173 139 129 143 154 128 44 117 102 105 148 130 142 141 134 135 130 130 129 126 121 114 104 116 108 102 97 99 100 100 97 89 91 104 102 97 94 90 89 87 84 80
93 137 91 68 100 175 203 145 151 147 171 131 126 115 118 283 158 152 142 143 139 139 135 125 124 129 129 123 119 109 104 101 95 99 101 104 99 90 86 87 106 101 99 96 93 91 88 84 81
59 75 76 86 248 264 211 178 169 158 137 155 162 155 105 90 123 143 148 146 140 137 132 137 128 131 128 124 120 115 106 100 98 105 101 100 102 97 89 90 107 105 104 99 96 93 90 86 83
109 167 88 119 244 259 260 172 172 174 147 149 132 147 132 116 143 153 152 144 138 136 137 140 135 129 123 119 117 109 104 100 101 104 102 101 99 97 98 99 104 102 105 103 100 97 93 88 84
83 53 89 266 268 259 193 163 197 169 163 191 147 152 144 174 161 156 148 143 147 140 143 141 139 127 111 111 108 104 102 100 101 94 89 85 85 99 97 101 105 106 105 105 103 99 95 91 87
93 92 130 211 220 271 156 173 206 178 174 114 159 190 177 176 159 152 138 147 150 148 146 138 131 127 126 128 109 102 95 89 90 88 79 78 82 93 89 102 105 106 104 105 104 99 95 90 88
150 67 225 211 184 210 166 191 147 114 136 186 180 162 112 145 148 140 142 141 150 151 147 142 135 133 131 127 119 115 109 93 91 94 84 91 99 101 99 89 100 107 105 103 99 98 96 94 90
125 202 232 209 204 226 187 204 167 178 161 191 166 78 134 148 154 159 165 162 167 162 155 150 142 139 140 133 123 115 105 101 101 101 97 90 88 93 96 92 94 101 103 101 100 101 99 105 102
162 233 211 239 216 216 192 209 176 176 205 205 205 155 156 158 166 170 172 177 172 164 157 161 146 150 149 139 133 125 117 114 111 113 105 95 96 96 103 107 103 106 105 106 110 117 99 99 104
223 244 242 261 206 184 172 156 203 209 237 249 199 155 159 170 172 174 174 174 170 171 163 160 155 156 147 141 137 130 127 121 125 118 111 108 108 104 100 100 107 106 94 101 94 94 101 105 102
228 274 197 242 198 195 155 204 212 233 288 70 137 154 165 168 176 178 180 175 169 172 170 165 159 163 155 150 139 137 130 132 129 130 114 115 123 113 110 101 102 101 105 99 92 91 104 110 107
202 244 235 222 184 209 191 210 193 217 155 132 150 163 168 174 176 177 181 177 177 171 172 166 169 168 164 159 152 147 143 135 143 150 147 138 130 127 121 115 106 102 98 93 85 78 90 94 101
144 216 261 209 182 201 187 199 230 78 169 162 167 169 173 179 179 189 182 177 176 177 168 174 169 168 174 171 160 157 149 151 146 140 149 149 144 138 129 123 119 113 107 105 95 84 81 87 88
140 74 206 145 169 54 245 259 277 152 182 184 177 175 177 186 189 184 183 177 177 167 176 173 175 174 172 176 171 162 155 155 143 140 140 147 149 145 136 130 124 126 119 107 96 88 85 81 84
38 190 210 298 168 138 215 267 287 195 214 202 190 185 181 187 188 184 184 181 176 173 173 178 176 178 178 176 172 162 157 163 154 151 151 154 149 147 136 130 128 128 114 106 101 91 90 99 96
171 195 212 234 138 183 197 256 262 213 222 228 204 192 186 194 191 184 186 184 178 177 176 178 179 180 176 173 167 154 157 162 162 165 165 158 156 154 142 133 133 133 120 112 107 105 91 94 103
178 192 215 236 233 261 241 261 269 245 226 238 211 206 196 201 186 185 188 185 184 180 177 184 180 184 174 177 171 171 174 170 169 175 171 163 161 158 149 143 143 136 128 114 117 115 119 109 118
181 194 222 284 261 223 202 272 289 262 244 240 228 214 200 189 184 188 189 187 189 182 183 184 190 183 185 184 179 175 168 174 170 172 173 170 166 163 161 155 147 146 137 138 135 146 142 118 158
198 205 216 240 211 227 228 248 260 243 255 252 239 228 204 194 192 191 193 193 189 188 187 188 188 186 187 188 159 122 120 135 159 171 173 177 175 171 167 157 146 144 146 147 149 165 171 149 110
204 210 206 230 256 261 274 251 240 258 278 255 251 227 203 196 201 195 195 194 195 194 190 188 189 184 186 184 189 185 190 187 189 184 179 174 179 174 166 156 152 149 143 144 145 156 153 163 151
218 162 210 233 222 241 192 234 209 302 264 256 262 240 204 200 195 199 199 198 197 189 189 189 187 187 184 187 194 189 197 194 177 176 171 178 180 177 170 163 159 153 149 142 135 142 144 136 154
148 165 81 83 170 229 203 217 220 206 233 273 269 254 199 193 201 205 200 193 192 189 184 183 187 192 187 189 191 193 190 179 176 175 178 182 179 175 176 164 161 154 145 144 138 131 129 122 119
171 145 200 202 201 229 181 178 252 238 243 253 277 284 208 192 195 195 189 189 188 188 186 187 192 194 191 192 192 194 189 187 185 178 183 177 181 183 179 170 163 160 144 138 143 136 131 133 131
183 186 188 208 203 211 158 222 224 219 263 273 270 273 260 193 201 202 198 194 189 189 189 192 195 197 192 194 194 192 190 190 195 190 183 190 191 187 174 173 169 162 158 149 142 137 132 132 134
169 200 166 106 44 182 191 253 268 237 262 275 261 251 245 217 203 207 201 196 188 189 193 195 197 201 196 197 193 193 192 194 196 190 189 191 187 176 172 170 163 160 161 157 149 145 142 142 144
196 155 153 126 170 223 203 240 216 212 224 250 247 234 249 226 207 206 203 194 188 193 194 197 200 203 198 194 193 192 192 194 192 188 189 191 184 176 171 170 165 166 162 172 159 151 153 149 152
160 176 106 128 173 221 228 227 213 200 201 209 222 221 225 239 247 227 202 189 190 192 194 198 200 203 202 197 193 194 193 193 192 193 191 189 181 178 176 167 168 172 172 171 164 158 155 153 164
206 193 184 185 188 221 233 216 190 219 222 211 204 193 224 246 253 242 207 187 187 193 195 199 201 203 200 197 193 197 191 195 193 196 193 185 186 183 179 175 175 171 171 166 167 161 163 164 166